Regional Weather Roundup
Issued by NWS

Home | Current Version | Previous Version | Text Only | Print | Product List | Glossary Off
Versions: 1 2 3 4 5 6 7 8 9 10 11 12 13 14 15 16 17 18 19 20 21 22 23 24 25 26 27 28 29 30 31 32 33 34 35 36 37 38 39 40 41 42 43 44 45 46 47 48 49 50

633
ASUS44 KMEG 271500
RWRTN
TENNESSEE HOURLY STATE WEATHER ROUNDUP
NATIONAL WEATHER SERVICE MEMPHIS TN
1000 AM CDT THU APR 27 2017

TNZ002-004-019-021-049-052-054-088>092-271600-
WEST TENNESSEE

CITY           SKY/WX    TMP DP  RH WIND       PRES   REMARKS
MEMPHIS INTL   CLOUDY    55  46  71 SW6       29.83R
NWS MEMPHIS      N/A     53 N/A N/A MISG        N/A
JACKSON        CLOUDY    54  48  80 W8        29.80F
DYERSBURG      CLOUDY    52  46  80 W5        29.81S
PARIS          CLOUDY    48  45  87 W10       29.78S
$$

TNZ008-025-027-028-033-062-065-066-271600-
NORTH MIDDLE TENNESSEE

CITY           SKY/WX    TMP DP  RH WIND       PRES   REMARKS
NASHVILLE      PTSUNNY   65  56  72 SW9G18    29.75R
CLARKSVILLE    CLOUDY    55  49  80 W12       29.76R
SMYRNA         PTSUNNY   69  60  73 SW14      29.75R
CROSSVILLE     CLOUDY    63  60  90 SW5       29.77R
$$

TNZ061-075-076-078-094-096-097-271600-
SOUTH MIDDLE TENNESSEE

CITY           SKY/WX    TMP DP  RH WIND       PRES   REMARKS
TULLAHOMA      MOSUNNY   66  59  77 SW8       29.77R
WINCHESTER     CLOUDY    66  61  82 W6        29.77R
MCMINNVILLE    PTSUNNY   66  63  88 SW8       29.75R
COLUMBIA         N/A     61  61 100 W13       29.77R
SHELBYVILLE    PTSUNNY   70  61  73 SW12      29.76R
$$

TNZ017-018-042-046-047-271600-
NORTHEAST TENNESSEE

CITY           SKY/WX    TMP DP  RH WIND       PRES   REMARKS
TRI CITIES     CLOUDY    71  57  61 SE6       29.77F
$$

TNZ012-013-036-069-073-074-271600-
CENTRAL EAST TENNESSEE

CITY           SKY/WX    TMP DP  RH WIND       PRES   REMARKS
KNOXVILLE      LGT RAIN  62  60  93 NW6       29.74R FOG
OAK RIDGE      LGT RAIN  63  60  90 CALM      29.76S FOG
GATLINBURG     PTSUNNY   64  59  82 N7        29.73R
$$

TNZ083-085-099-271600-
SOUTHEAST TENNESSEE

CITY           SKY/WX    TMP DP  RH WIND       PRES   REMARKS
CHATTANOOGA    CLOUDY    67  64  90 SW9       29.76R
$$

SKY/WX REPORTED AS FAIR MEANS FEW OR NO CLOUDS BELOW
12 THOUSAND FEET.





USA.gov is the U.S. government's official web portal to all federal, state and local government web resources and services.